Weather Roundup
Issued by NWS Chicago, IL

Home | Current Version | Previous Version | Text Only | Print | Product List | Glossary On
Versions: 1 2 3 4 5 6 7 8 9 10 11 12 13 14 15 16 17 18 19 20 21 22 23 24 25 26 27 28 29 30 31 32 33 34 35 36 37 38 39 40 41 42 43 44 45 46 47 48 49 50
949
NZUS59 KLOT 231703
HRRLOT

CHICAGO AREA WEATHER ROUNDUP
NATIONAL WEATHER SERVICE CHICAGO/ROMEOVILLE IL
1200 PM CDT SUN APR 23 2017

NOTE: "FAIR" INDICATES FEW OR NO CLOUDS BELOW 12,000 FEET WITH NO
SIGNIFICANT WEATHER AND/OR OBSTRUCTIONS TO VISIBILITY.

* THESE STATIONS ARE NOT UNDER NWS QUALITY CONTROL. THEY ALSO MAY NOT
  REPORT WEATHER SUCH AS PRECIPITATION OR FOG.

ILZ005-006-012>014-019>023-231800-
NORTHEAST ILLINOIS

CITY           SKY/WX    TMP DP  RH WIND       PRES   REMARKS
OHARE          SUNNY     67  27  22 CALM      30.10F
MIDWAY         SUNNY     67  30  25 N9        30.11F
AURORA         SUNNY     66  31  27 VRB3      30.11F
LANSING*       SUNNY     64  33  31 NE6       30.12F
JOLIET*        SUNNY     65  33  29 N6        30.12S
WAUKEGAN       SUNNY     67  35  30 N8        30.09F
DUPAGE AIRPORT SUNNY     67  32  27 N6        30.10F
WHEELING       SUNNY     67  30  25 VRB6      30.11F
KANKAKEE*      SUNNY     67  28  23 NE6       30.11F
MORRIS*        SUNNY     65  29  26 CALM      30.11S
NORTHERLY ISL    N/A     55  40  56 E3          N/A
$$

WIZ051-052-058>065-066-070>072-231800-
SOUTHEAST WISCONSIN

CITY           SKY/WX    TMP DP  RH WIND       PRES   REMARKS
MILWAUKEE      SUNNY     69  33  26 W10       30.09F
KENOSHA*       SUNNY     66  35  31 VRB7      30.10F
RACINE*        SUNNY     67  33  28 VRB6      30.11F
WAUKESHA       SUNNY     64  34  32 W12       30.11F
WEST BEND      SUNNY     66  36  32 W8        30.07F
$$

INZ001>003-010>013-019-020-231800-
NORTHWEST INDIANA

CITY           SKY/WX    TMP DP  RH WIND       PRES   REMARKS
GARY*          SUNNY     64  23  20 N7        30.12F
MICHIGAN CITY* NOT AVBL
RENSSELAER*    NOT AVBL
VALPARAISO     SUNNY     66  34  30 VRB6      30.10F
$$

LMZ740>746-231800-
SOUTHERN LAKE MICHIGAN

STATION/POSITION TIME  SKY/WX   TEMP WIND        PRES    VSBY
                                AIR  DIR/SP/G
                 (UTC)          (F)  (DEG/KT/KT) (MB)    (MI)
HARRISON CRIB    1630            56  100/  5/  5   N/A
BURNHAM HARBOR   1700            55   70/  4       N/A
CALUMET HARBOR   1630            54   60/  6/  7 1019.5F
BURNS HARBOR     1640            52   50/  5/  6 1020.7F
MICHIGAN CITY    1640            48   10/  4/  4   N/A
$$

ABBREVIATIONS USED IN REMARKS
   TC - TEMPERATURE IN CELSIUS
  WCI - WIND CHILL INDEX
   HX - HEAT INDEX
  VSB - VISIBILITY
$$




USA.gov is the U.S. government's official web portal to all federal, state and local government web resources and services.